Content
SEND FEEDBACK

Daily
Averages
Monthly
Summary
United States of America

MANGILAO, GUAM


Home > North America > United States > Guam
Elevation: 60 feet     Latitude: 13 27N     Longitude: 144 49E

WEATHER
 
SELECT A DAY
Number of Records: 352,394;   Date Range: 1/1/95 - 10/29/14
 
SHARE

PRINT THIS DATA

[ ← Previous Day ]
WEATHER ALMANAC - APRIL 4, 2013
[ Next Day → ]
[ °C ]   °F
Weather ElementAverageHighLow
Temperature80.5 °F84.2 °F (1:01 pm)76.3 °F (3:55 am)
Dewpoint73 °F75.2 °F (1:19 pm)70.9 °F (8:55 pm)
Humidity77.9 %90 % (2:55 am)69 % (2:55 pm)
Barometer29.83 in29.89 in (12:14 am)29.79 in (3:55 pm)
Wind Speed11.1 mph15 mph (9:55 am)
Weather ElementAverage
Visibility9.5 mi
Wind DirectionE (95.5 °)

Weather ElementTotal
Precipitation---
Cooling Degree Days15.3 (Base 65)
Growing Degree Days30.3 (Base 50)
Averaged from 44 records on April 4, 2013
WEATHER CONDITIONS BREAKOUT
WIND DIRECTION BREAKOUT
WEATHER BY HOUR - APRIL 4, 2013
[ °C ]   °F
Local TimeTemperatureDewpointHumidityBarometerVisibilityWind DirectionWind SpeedGust SpeedPrecipitationEventsConditions
12:14 AM77.0 °F73.4 °F89 %29.89 in7.0 miENE (60°)9.2 mphScattered Clouds
12:55 AM77.2 °F73.6 °F89 %29.84 in7.0 miENE (60°)9.2 mph0.00 inMostly Cloudy
1:55 AM77.5 °F73.9 °F89 %29.83 in7.0 miNNE (30°)6.9 mph0.00 inMostly Cloudy
2:55 AM77.0 °F73.9 °F90 %29.82 in7.0 miENE (60°)5.8 mphScattered Clouds
3:55 AM76.3 °F73.0 °F90 %29.82 in7.0 miEast (80°)5.8 mphPartly Cloudy
4:55 AM76.8 °F73.2 °F89 %29.83 in7.0 miESE (110°)4.6 mphScattered Clouds
5:55 AM76.8 °F73.6 °F90 %29.83 in7.0 miEast (90°)4.6 mphScattered Clouds
6:55 AM77.4 °F73.8 °F89 %29.85 in7.0 miESE (110°)6.9 mphPartly Cloudy
7:55 AM79.7 °F73.2 °F80 %29.87 in10.0 miESE (110°)9.2 mphClear
8:55 AM80.8 °F73.2 °F78 %29.87 in10.0 miESE (120°)10.4 mphMostly Cloudy
9:22 AM82.4 °F73.4 °F74 %29.87 in10.0 miESE (120°)13.8 mphScattered Clouds
9:55 AM82.0 °F73.0 °F74 %29.87 in10.0 miESE (120°)15.0 mphMostly Cloudy
10:55 AM83.3 °F73.6 °F72 %29.86 in10.0 miESE (120°)13.8 mphPartly Cloudy
11:55 AM83.8 °F73.2 °F70 %29.85 in10.0 miESE (110°)12.7 mphPartly Cloudy
12:31 PM82.4 °F73.4 °F74 %29.84 in10.0 miEast (100°)13.8 mphMostly Cloudy
12:34 PM82.4 °F73.4 °F74 %29.83 in10.0 miESE (110°)15.0 mphMostly Cloudy
12:37 PM82.4 °F73.4 °F74 %29.83 in10.0 miEast (100°)12.7 mphMostly Cloudy
12:38 PM82.4 °F73.4 °F74 %29.83 in10.0 miEast (100°)12.7 mphMostly Cloudy
12:55 PM83.1 °F73.8 °F73 %29.83 in10.0 miEast (100°)13.8 mphMostly Cloudy
12:56 PM82.4 °F73.4 °F74 %29.83 in10.0 miEast (100°)15.0 mphMostly Cloudy
1:00 PM82.4 °F73.4 °F74 %29.83 in10.0 miESE (110°)11.5 mphMostly Cloudy
1:01 PM84.2 °F73.4 °F70 %29.83 in10.0 miESE (110°)12.7 mphMostly Cloudy
1:19 PM82.4 °F75.2 °F79 %29.82 in10.0 miEast (90°)12.7 mphScattered Clouds
1:55 PM82.9 °F73.4 °F73 %29.81 in10.0 miESE (110°)10.4 mphScattered Clouds
2:11 PM84.2 °F73.4 °F70 %29.80 in10.0 miEast (90°)13.8 mphMostly Cloudy
2:14 PM84.2 °F73.4 °F70 %29.80 in10.0 miEast (100°)11.5 mphMostly Cloudy
2:28 PM82.4 °F73.4 °F74 %29.80 in10.0 miENE (70°)12.7 mphMostly Cloudy
2:39 PM82.4 °F73.4 °F74 %29.80 in10.0 miEast (90°)13.8 mphScattered Clouds
2:55 PM83.8 °F72.7 °F69 %29.80 in10.0 miEast (90°)15.0 mphPartly Cloudy
3:55 PM83.1 °F73.9 °F74 %29.79 in10.0 miEast (90°)13.8 mphScattered Clouds
4:55 PM82.2 °F73.0 °F74 %29.79 in10.0 miEast (90°)11.5 mphScattered Clouds
5:55 PM80.6 °F72.5 °F76 %29.80 in10.0 miEast (100°)10.4 mphScattered Clouds
6:55 PM79.2 °F72.7 °F80 %29.82 in10.0 miEast (90°)11.5 mphScattered Clouds
6:57 PM78.8 °F73.4 °F83 %29.82 in10.0 miEast (100°)11.5 mphMostly Cloudy
7:03 PM78.8 °F71.6 °F78 %29.83 in10.0 miEast (100°)11.5 mphScattered Clouds
7:05 PM78.8 °F71.6 °F78 %29.83 in10.0 miEast (90°)11.5 mphMostly Cloudy
7:30 PM78.8 °F71.6 °F78 %29.83 in10.0 miEast (90°)13.8 mphMostly Cloudy
7:55 PM78.6 °F71.6 °F79 %29.84 in10.0 miEast (90°)12.7 mphPartly Cloudy
8:55 PM78.3 °F70.9 °F78 %29.86 in10.0 miEast (100°)9.2 mphPartly Cloudy
9:15 PM78.8 °F71.6 °F78 %29.86 in10.0 miEast (100°)8.1 mphMostly Cloudy
9:42 PM78.8 °F71.6 °F78 %29.86 in10.0 miEast (100°)9.2 mphScattered Clouds
9:55 PM78.3 °F71.2 °F79 %29.86 in10.0 miEast (100°)8.1 mphScattered Clouds
10:55 PM78.4 °F71.2 °F78 %29.88 in10.0 miEast (90°)10.4 mphMostly Cloudy
11:55 PM78.3 °F71.1 °F78 %29.87 in10.0 miEast (100°)9.2 mphMostly Cloudy
Hourly data recorded from PGUA, located miles away from Mangilao, Guam







STORIES FROM OUR PARTNERS